User: anonymous   Login
Location: Unspecified
(0.0000°N, 0.0000°E)
Time: 05:11:10
(UTC+00:00)
Language:

Orbcomm G2 (FM04) - Orbit

View from above orbital plane
View from above orbital plane
View from above satellite
View from above satellite

Ground track
Ground track

The orbit data is extracted from the following two-line orbital elements,

1 25159U 98007C   18321.88506529 +.00000142 +00000-0 +10604-3 0  9995
2 25159 107.9943 265.4846 0041768 098.2864 262.3012 14.29577392080480
Epoch (UTC): 17 November 2018 21:14:29
Eccentricity: 0.0041768
inclination: 107.9943°
perigee height: 763 km
apogee height: 823 km
right ascension of ascending node: 265.4846°
argument of perigee: 98.2864°
revolutions per day: 14.29577392
mean anomaly at epoch: 262.3012°
orbit number at epoch: 8048

The dashed part of the orbit path shows where the satellite is in the earth's shadow,  

DLR